Location: *
(51.8167°N, 12.5000°E)
Time: 06:05:24
(UTC+00:00)

Meteor 1-4 Rocket - Pass Details

Date: 16 September 2019
Orbit: 449 x 504 km, 81.2° (Epoch: 21 October)

Event Time Altitude Azimuth Distance (km) Brightness Sun altitude
Rises 19:07:28 0° 348° (NNW) 2,548 6.8 -16.3°
Reaches altitude 10° 19:09:36 10° 350° (N) 1,654 5.8 -16.6°
Maximum altitude 19:13:13 77° 77° (ENE) 486 2.4 -17.1°
Enters shadow 19:14:29 37° 157° (SSE) 740 3.1 -17.2°
